Terminal Aerodrome Forecast
Issued by NWS Boston, MA

Home | Current Version | Previous Version | Text Only | Print | Product List | Glossary On
Versions: 1 2 3 4 5 6 7 8 9 10 11 12 13 14 15 16 17 18 19 20 21 22 23 24 25 26 27 28 29 30 31 32 33 34 35 36 37 38 39 40 41 42 43 44 45 46
000
FTUS41 KBOX 210838 AAA
TAFBOS
TAF AMD
KBOS 210838Z 2109/2212 17006KT P6SM VCSH BKN040 OVC060
     FM211200 17008KT 6SM -SHRA BR OVC040
     FM211500 16008KT P6SM BKN040
     FM220000 VRB03KT 6SM BR BKN090=

USA.gov is the U.S. government's official web portal to all federal, state and local government web resources and services.